Location: St. Louis
(38.6270°N, 90.1994°W)
Time: 09:01:20
(UTC-05:00)

Altair - Pass Details

Date: 05 July 2022
Orbit: 1502 x 1682 km, 47.2° (Epoch: 16 August)

Event Time Altitude Azimuth Distance (km) Brightness Sun altitude
Exits shadow 05:04:06 - 210° (SSW) 4,200 9.2 -7.0°
Reaches altitude 10° 05:05:53 10° 206° (SSW) 3,647 8.9 -6.7°
Maximum altitude 05:14:30 48° 136° (SE) 1,895 8.1 -5.4°
Drops below altitude 10° 05:23:10 10° 66° (ENE) 3,684 11.4 -4.0°
Sets 05:26:22 0° 61° (ENE) 4,686 13.2 -3.5°
